Volver al catálogo

FENGYUN 1C DEB

ActivoSSO
NORAD 31804·DEBRIS·🇨🇳 China

Lanzado May 10, 1999 desde Taiyuan Satellite Launch Center

Loading…

Próximos Pases (próximas 24 horas)

TLE

EnvejeciendoSource: Space-Track

Época: Sep 5, 2026, 05:19 UTC

1 31804U 99025CGS 26248.22192008  .00001678  00000-0  82969-3 0  9996
2 31804  98.3032  42.3981 0137730  96.6097 265.0776 14.13709747674258

Sigue FENGYUN 1C DEB en tiempo real con AllMySat

Download on the App Store